Flag for Canada Weather past 2 weeks in Windsor, Ontario, Canada

Now
52 °F

Passing clouds.


Feels Like: 49 °F
Forecast: 37 / 67 °F
Wind: 9 mph from East

Location: Windsor Weather Station


UV Index: 5 (Moderate)

Visibility: 15 mi


Pressure: 30.37 "Hg

Humidity: 47%

Dew point: 32 °F

Location of WindsorLocation

Historic Weather in Windsor

°F

Windsor temperature yesterday

Maximum temperature yesterday: 57 °F (at 1:00 PM)
Minimum temperature yesterday: 39 °F (at 11:00 PM)
Average temperature yesterday: 49 °F

Past Weeks' High & Low Weather Summary

 TemperatureHumidityPressure
High75 °F (Apr 13, 4:00 PM)100% (Apr 7, 11:00 PM)30.50 "Hg (Apr 7, 11:00 PM)
Low25 °F (Apr 16, 3:00 AM)26% (Apr 9, 4:00 PM)29.45 "Hg (Apr 14, 7:00 AM)
Average46 °F66%30.00 "Hg
* Reported Apr 4 6:00 PM — Apr 19 6:00 PM, Windsor, Weather by CustomWeather, © 2014

Note: Actual official high and low records may vary slightly from our data, if they occured in-between our weather recording intervals... More about our weather records

Advertising

Historic Weather Conditions — Data for Previous 24 hours

 ConditionsComfort  
Time TempWeatherWind HumidityBarometerVisibility
6:00 PM
Apr 19
55 °FPassing clouds.6 mph44%30.38 "Hg15 mi
5:00 PM54 °FPassing clouds.7 mph38%30.40 "Hg15 mi
4:00 PM52 °FPassing clouds.5 mph41%30.42 "Hg15 mi
3:00 PM52 °FPassing clouds.7 mph44%30.43 "Hg15 mi
2:00 PM48 °FPassing clouds.8 mph50%30.45 "Hg15 mi
1:00 PM48 °FPassing clouds.8 mph54%30.47 "Hg15 mi
12:00 PM45 °FPassing clouds.12 mph66%30.49 "Hg15 mi
11:00 AM43 °FSunny.10 mph71%30.49 "Hg15 mi
10:00 AM41 °FSunny.12 mph76%30.48 "Hg15 mi
9:00 AM39 °FPassing clouds.16 mph81%30.47 "Hg15 mi
8:00 AM37 °FPassing clouds.14 mph81%30.46 "Hg15 mi
7:00 AM34 °FPassing clouds.7 mph87%30.44 "Hg15 mi
6:00 AM36 °FPassing clouds.10 mph87%30.42 "Hg15 mi
5:00 AM36 °FPassing clouds.13 mph81%30.40 "Hg15 mi
4:00 AM37 °FPassing clouds.18 mph75%30.39 "Hg15 mi
3:00 AM37 °FPassing clouds.18 mph75%30.39 "Hg12 mi
2:00 AM37 °FPassing clouds.15 mph87%30.40 "Hg12 mi
1:00 AM39 °FPassing clouds.16 mph75%30.39 "Hg12 mi
12:00 AM39 °FPartly cloudy.22 mph81%30.37 "Hg12 mi
11:00 PM
Apr 18
39 °FPassing clouds.20 mph81%30.34 "Hg10 mi
10:00 PM45 °FPassing clouds.18 mph76%30.31 "Hg12 mi
9:00 PM46 °FScattered clouds.9 mph76%30.27 "Hg12 mi
8:00 PM50 °FPassing clouds.7 mph71%30.26 "Hg7 mi
Weather by CustomWeather, © 2014

See weather overview